This demonstration page uses our WeatherBlox Daily Observations layout. Learn more.

39.08367, -84.50855

Hourly Observations for October 8, 2019

Temp ( °F °C ) Dew Point ( °F °C ) Humidity (%) Winds ( mph kmh ) Pressure ( in mb ) Visibility ( mi km ) Precip ( " mm )
12:53 am 00:53 Mostly Cloudy with Fog 53 11.7 53 11.7 100 100 NE 3 6 30.24 1024 5 8.0467 0 0
1:53 am 01:53 Mostly Cloudy with Fog 52 11.1 52 11.1 100 100 ENE 3 6 30.23 1024 0.25 0.402335 0 0
2:53 am 02:53 Mostly Cloudy with Fog 51 10.6 51 10.6 100 100 Calm 30.23 1024 0.25 0.402335 0 0
3:53 am 03:53 Mostly Cloudy with Fog 51 10.6 51 10.6 100 100 Calm 30.22 1023 0.25 0.402335 0 0
4:53 am 04:53 Mostly Cloudy with Fog 50 10 50 10 100 100 ENE 5 7 30.23 1024 0.25 0.402335 0 0
5:53 am 05:53 Mostly Cloudy with Fog 50 10 50 10 100 100 ENE 5 7 30.24 1024 0.25 0.402335 0 0
6:53 am 06:53 Mostly Cloudy with Fog 49 9.4 49 9.4 100 100 N 3 6 30.25 1024 0.25 0.402335 0 0
7:53 am 07:53 Mostly Cloudy with Fog 49 9.4 49 9.4 100 100 NNE 3 6 30.25 1025 0.25 0.402335 0 0
8:00 am 08:00 Partly Cloudy with Fog 49 9.4 49 9.4 100 100 NNE 3 6 30.27 1025 5 8.0467 0 0
8:07 am 08:07 Mostly Cloudy with Fog 49 9.4 49 9.4 100 100 N 3 6 30.27 1025 1 1.60934 0 0
8:53 am 08:53 Mostly Cloudy with Fog 50 10 49 9.4 96 96 NNE 5 7 30.26 1025 1 1.60934 0 0
9:13 am 09:13 Mostly Cloudy with Mist and Fog 50 10 50 10 100 100 N 3 6 30.27 1025 0.75 1.207005 0 0
9:28 am 09:28 Mostly Cloudy with Mist and Fog 51 10.6 51 10.6 100 100 NNE 3 6 30.27 1025 1.5 2.41401 0 0
9:53 am 09:53 Partly Cloudy with Mist and Fog 52 11.1 52 11.1 100 100 NE 5 7 30.27 1025 5 8.0467 0 0
10:53 am 10:53 Sunny 60 15.6 52 11.1 75 75 E 6 9 30.26 1025 10 16.0934 0 0
11:53 am 11:53 Sunny 67 19.4 48 8.9 51 51 E 7 11 30.24 1024 10 16.0934 0 0
12:53 pm 12:53 Sunny 69 20.6 43 6.1 39 39 ENE 13 20 30.23 1024 10 16.0934 0 0
1:53 pm 13:53 Sunny 71 21.7 42 5.6 35 35 E 14 22 30.2 1023 10 16.0934 0 0
2:53 pm 14:53 Sunny 71 21.7 41 5 34 34 ENE 7 11 30.17 1022 10 16.0934 0 0
3:53 pm 15:53 Sunny 72 22.2 42 5.6 34 34 ENE 10 17 30.16 1021 10 16.0934 0 0
4:53 pm 16:53 Sunny 72 22.2 42 5.6 34 34 ENE 8 13 30.14 1021 10 16.0934 0 0
5:53 pm 17:53 Sunny 70 21.1 39 3.9 32 32 ENE 12 19 30.14 1021 10 16.0934 0 0
6:53 pm 18:53 Sunny 64 17.8 42 5.6 45 45 ENE 6 9 30.15 1021 10 16.0934 0 0
7:53 pm 19:53 Clear 56 13.3 47 8.3 72 72 Calm 30.16 1021 10 16.0934 0 0
8:53 pm 20:53 Clear 51 10.6 47 8.3 86 86 Calm 30.18 1022 10 16.0934 0 0
9:53 pm 21:53 Clear 50 10 47 8.3 89 89 Calm 30.18 1022 10 16.0934 0 0
10:53 pm 22:53 Clear 49 9.4 47 8.3 93 93 NE 3 6 30.18 1022 10 16.0934 0 0
11:53 pm 23:53 Clear 48 8.9 47 8.3 96 96 Calm 30.17 1022 10 16.0934 0 0

Powered by AerisWeather